Location: Hawks Ness
(60.2333°N, 1.1667°W)
Time: 01:05:41
(UTC+00:00)

CZ-2C R/B - Pass Details

Date: 22 October 2019
Orbit: 668 x 784 km, 98.1° (Epoch: 17 November)

Event Time Altitude Azimuth Distance (km) Brightness Sun altitude
Rises 04:13:07 0° 18° (NNE) 3,287 6.2 -21.3°
Reaches altitude 10° 04:15:33 10° 24° (NNE) 2,358 5.5 -21.0°
Maximum altitude 04:20:34 46° 98° (E) 1,052 3.6 -20.4°
Drops below altitude 10° 04:25:32 10° 171° (S) 2,326 4.9 -19.8°
Sets 04:27:55 0° 178° (S) 3,238 5.6 -19.5°
